IRIDIUM 150

Last updated on Fri Sep 11 2026 00:03:06 GMT+0000 (Coordinated Universal Time)

1 43257U 18030J 26253.47503707 -.00000002 00000+0 -78992-5 0 9997 2 43257 86.3911 254.7913 0002184 87.6468 272.4978 14.34217420442384
UTC large
Height (km)
Speed (km/s)
/
Latitude / Longitude
Inclination (degrees)
Orbital Period (minutes)
Azimuth
Elevation
Range (km)
Doppler Factor

Next 0 passes for location: London (51.5072 / 0.1276)

No passes found over London.
IRIDIUM 150